CW6265 Weather Reports


time (UTC)temp
F
wind
direction
speed
knots
gust
knots
rain 1hr
in
rain 24hr
in
rain mn
in
humidity
%
barometer
mb
20260503193828 52 121 2.6 7.8 0.01 0.01 0.01 76 1009.7
20260503193325 53 336 2.6 7.0 0.01 0.01 0.01 76 1009.8
20260503192841 53 85 2.6 7.8 0.01 0.01 0.01 75 1009.9
20260503192344 54 175 3.5 7.8 0.01 0.01 0.01 73 1010.0
20260503191832 55 173 2.6 6.1 0.00 0.00 0.00 73 1010.2
20260503191337 55 228 2.6 7.0 0.00 0.00 0.00 72 1010.3
20260503190837 56 152 3.5 9.6 0.00 0.00 0.00 70 1010.4
20260503190341 56 184 2.6 10.4 0.00 0.00 0.00 69 1010.6
20260503185836 57 123 1.7 10.4 0.00 0.00 0.00 67 1010.5
20260503185322 58 269 4.3 9.6 0.00 0.00 0.00 67 1010.6
20260503184854 58 208 3.5 9.6 0.00 0.00 0.00 65 1010.6
20260503184326 59 155 4.3 10.4 0.00 0.00 0.00 64 1010.5
20260503183818 60 234 4.3 7.8 0.00 0.00 0.00 64 1010.6
20260503183325 60 217 4.3 9.6 0.00 0.00 0.00 64 1010.5
20260503182831 60 143 3.5 9.6 0.00 0.00 0.00 65 1010.6
20260503182323 60 334 2.6 9.6 0.00 0.00 0.00 64 1010.6
20260503181832 60 210 2.6 7.8 0.00 0.00 0.00 63 1010.5
20260503181334 60 161 4.3 7.8 0.00 0.00 0.00 64 1010.5
20260503180839 60 295 3.5 9.6 0.00 0.00 0.00 66 1010.6
20260503180341 60 150 1.7 9.6 0.00 0.00 0.00 64 1010.6
20260503175854 60 98 4.3 9.6 0.00 0.00 0.00 64 1010.5
20260503175337 60 97 3.5 10.4 0.00 0.00 0.00 64 1010.4
20260503174827 59 183 2.6 10.4 0.00 0.00 0.00 65 1010.6
20260503174337 59 213 4.3 9.6 0.00 0.00 0.00 67 1010.6
20260503173821 59 195 4.3 9.6 0.00 0.00 0.00 64 1010.7
20260503173352 59 153 4.3 12.2 0.00 0.00 0.00 65 1010.7
20260503172818 59 233 2.6 12.2 0.00 0.00 0.00 66 1010.8
20260503172325 59 307 4.3 8.7 0.00 0.00 0.00 63 1010.9
20260503171831 58 153 3.5 8.7 0.00 0.00 0.00 62 1010.9
20260503171321 58 9 4.3 9.6 0.00 0.00 0.00 64 1011.1
20260503170818 58 130 4.3 14.8 0.00 0.00 0.00 64 1011.1
20260503170330 58 261 5.2 14.8 0.00 0.00 0.00 65 1011.3
20260503150820 52 190 3.5 9.6 0.00 0.00 0.00 71 1011.8
20260503150324 52 175 1.7 10.4 0.00 0.00 0.00 71 1011.8
20260503131324 48 152 3.5 8.7 0.00 0.00 0.00 77 1012.5
20260503130827 48 221 1.7 6.1 0.00 0.00 0.00 76 1012.5
20260503130332 48 126 2.6 6.1 0.00 0.00 0.00 76 1012.5
20260503110343 46 223 0.9 6.1 0.00 0.00 0.00 77 1012.1
20260503090321 46 162 1.7 6.1 0.00 0.00 0.00 78 1012.5
20260503081341 45 211 1.7 7.0 0.00 0.00 0.00 82 1012.7
20260503080826 45 223 1.7 7.0 0.00 0.00 0.00 81 1012.7
20260503080332 45 129 2.6 6.1 0.00 0.00 0.00 82 1012.6
20260503072835 42 185 2.6 5.2 0.00 0.00 0.00 84 1012.8
20260503072342 42 151 1.7 4.3 0.00 0.00 0.00 84 1012.8
20260503071849 41 108 1.7 4.3 0.00 0.00 0.00 84 1012.7
20260503071337 41 142 0.9 3.5 0.00 0.00 0.00 84 1012.9
20260503070822 40 155 1.7 4.3 0.00 0.00 0.00 83 1013.0
20260503070329 40 201 1.7 4.3 0.00 0.00 0.00 83 1013.0
20260503060327 39 139 0.0 0.9 0.00 0.00 0.00 77 1013.6
20260503054829 39 139 0.0 0.9 0.00 0.00 0.00 76 1013.9
20260503054331 39 139 0.0 0.9 0.00 0.00 0.00 76 1013.9
20260503053831 39 139 0.0 0.9 0.00 0.00 0.00 77 1014.0
20260503053340 39 139 0.0 0.9 0.00 0.00 0.00 76 1014.0
20260503052832 39 139 0.0 0.9 0.00 0.00 0.00 76 1014.0
20260503052340 39 139 0.0 0.0 0.00 0.00 0.00 76 1014.1
20260503051819 39 139 0.0 0.9 0.00 0.00 0.00 75 1014.2
20260503051352 39 139 0.0 0.9 0.00 0.00 0.00 75 1014.2
20260503050831 39 139 0.0 0.9 0.00 0.00 0.00 75 1014.2
20260503050326 39 139 0.0 0.9 0.00 0.00 0.00 75 1014.3
20260503045835 40 139 0.0 0.9 0.00 0.00 0.00 75 1014.4
20260503045322 40 139 0.0 0.9 0.00 0.00 0.00 75 1014.4
20260503044829 40 139 0.0 0.9 0.00 0.00 0.00 75 1014.4
20260503044339 40 139 0.0 0.9 0.00 0.00 0.00 74 1014.4
20260503043845 40 139 0.0 0.9 0.00 0.00 0.00 74 1014.5
20260503043332 40 139 0.0 0.0 0.00 0.00 0.00 74 1014.5
20260503042834 40 139 0.0 0.0 0.00 0.00 0.00 73 1014.5
20260503042327 40 139 0.0 0.0 0.00 0.00 0.00 73 1014.6
20260503041834 40 139 0.0 0.0 0.00 0.00 0.00 73 1014.6
20260503041325 41 139 0.0 0.9 0.00 0.00 0.00 73 1014.7
20260503040828 41 139 0.0 0.9 0.00 0.00 0.00 72 1014.7
20260503040315 41 139 0.0 0.0 0.00 0.00 0.00 72 1014.8
20260503035822 41 139 0.0 0.0 0.00 0.00 0.00 72 1014.8
20260503035328 41 139 0.0 0.0 0.00 0.00 0.00 73 1014.9
20260503034824 41 139 0.0 0.0 0.00 0.00 0.00 72 1014.9
20260503034330 41 139 0.0 0.0 0.00 0.00 0.00 72 1015.0
20260503033817 41 139 0.0 0.0 0.00 0.00 0.00 72 1015.0
20260503033356 42 139 0.0 0.0 0.00 0.00 0.00 72 1015.1
20260503032821 42 139 0.0 0.0 0.00 0.00 0.00 72 1015.1
20260503032335 42 139 0.0 0.0 0.00 0.00 0.00 72 1015.2
20260503031823 42 139 0.0 0.0 0.00 0.00 0.00 72 1015.2
20260503031326 42 139 0.0 0.0 0.00 0.00 0.00 72 1015.2
20260503030834 42 139 0.0 0.0 0.00 0.00 0.00 73 1015.3
20260503030340 42 139 0.0 0.0 0.00 0.00 0.00 73 1015.4
20260503025841 42 139 0.0 0.0 0.00 0.00 0.00 74 1015.4
20260503025327 42 139 0.0 0.0 0.00 0.00 0.00 73 1015.4
20260503024857 42 139 0.0 0.0 0.00 0.00 0.00 73 1015.5
20260503024321 42 139 0.0 0.0 0.00 0.00 0.00 72 1015.5
20260503023829 43 139 0.0 0.0 0.00 0.00 0.00 71 1015.5
20260503023319 43 139 0.0 0.0 0.00 0.00 0.00 71 1015.5
20260503022818 43 139 0.0 0.0 0.00 0.00 0.00 70 1015.6
20260503022357 43 139 0.0 0.0 0.00 0.00 0.00 71 1015.5
20260503021819 43 139 0.0 0.0 0.00 0.00 0.00 71 1015.6
20260503021332 43 139 0.0 0.0 0.00 0.00 0.00 71 1015.6
20260503020839 44 139 0.0 0.0 0.00 0.00 0.00 71 1015.7
20260503020354 44 139 0.0 0.0 0.00 0.00 0.00 70 1015.7
20260503015842 44 139 0.0 0.0 0.00 0.00 0.00 69 1015.7
20260503015324 44 139 0.0 0.0 0.00 0.00 0.00 69 1015.6
20260503014830 44 139 0.0 0.0 0.00 0.00 0.00 69 1015.6
20260503014335 45 139 0.0 0.0 0.00 0.00 0.00 69 1015.6
20260503013846 45 139 0.0 0.0 0.00 0.00 0.00 70 1015.6
20260503013328 45 139 0.0 0.0 0.00 0.00 0.00 69 1015.6
20260503012835 45 139 0.0 0.0 0.00 0.00 0.00 68 1015.6
20260503012320 46 139 0.0 0.0 0.00 0.00 0.00 68 1015.6
20260503011828 46 139 0.0 0.0 0.00 0.00 0.00 68 1015.7
20260503011337 46 139 0.0 0.0 0.00 0.00 0.00 67 1015.7
20260503010823 46 139 0.0 0.0 0.00 0.00 0.00 67 1015.8
20260503010324 46 139 0.0 0.0 0.00 0.00 0.00 66 1015.8
20260503005835 46 139 0.0 0.0 0.00 0.00 0.00 67 1015.7
20260503005317 47 139 0.0 0.0 0.00 0.00 0.00 67 1015.7
20260503004819 47 139 0.0 0.0 0.00 0.00 0.00 66 1015.7
20260503004322 47 139 0.0 0.0 0.00 0.00 0.00 66 1015.8
20260503003817 47 139 0.0 0.9 0.00 0.00 0.00 66 1015.8
20260503003322 47 139 0.0 1.7 0.00 0.00 0.00 67 1015.8
20260503002831 47 139 0.9 1.7 0.00 0.00 0.00 68 1015.8
20260503002343 48 130 0.9 2.6 0.00 0.00 0.00 66 1015.8
20260503001840 48 185 0.9 2.6 0.00 0.00 0.00 66 1015.8
20260503001327 48 134 0.9 2.6 0.00 0.00 0.00 65 1015.9
20260503000855 48 128 1.7 2.6 0.00 0.00 0.00 67 1015.9
20260503000322 48 180 0.9 2.6 0.00 0.00 0.00 69 1016.0
20260502235829 48 187 0.9 4.3 0.00 0.00 0.00 68 1015.9
20260502235329 49 173 0.9 3.5 0.00 0.00 0.00 68 1015.9
20260502234827 49 182 0.9 2.6 0.00 0.00 0.00 67 1016.0
20260502234335 49 211 0.9 4.3 0.00 0.00 0.00 65 1016.0
20260502233817 49 196 0.9 3.5 0.00 0.00 0.00 66 1016.1
20260502233322 49 176 0.9 2.6 0.00 0.00 0.00 64 1016.0
20260502232821 50 173 0.9 2.6 0.00 0.00 0.00 60 1016.1
20260502232323 50 200 1.7 2.6 0.00 0.00 0.00 63 1016.1
20260502231843 50 150 1.7 2.6 0.00 0.00 0.00 60 1016.0
20260502231349 50 204 1.7 2.6 0.00 0.00 0.00 62 1016.1
20260502230834 51 177 0.9 5.2 0.00 0.00 0.00 62 1016.2
20260502230325 51 180 2.6 5.2 0.00 0.00 0.00 61 1016.2
20260502225901 51 155 0.9 3.5 0.00 0.00 0.00 61 1016.3
20260502225346 52 178 1.7 4.3 0.00 0.00 0.00 61 1016.3
20260502224827 52 173 0.9 3.5 0.00 0.00 0.00 58 1016.3
20260502224329 52 174 1.7 5.2 0.00 0.00 0.00 53 1016.3
20260502223832 53 186 1.7 5.2 0.00 0.00 0.00 56 1016.3
20260502223339 53 161 0.9 5.2 0.00 0.00 0.00 53 1016.4
20260502222848 53 135 1.7 5.2 0.00 0.00 0.00 52 1016.5
20260502222335 54 148 0.9 4.3 0.00 0.00 0.00 52 1016.5
20260502221834 54 147 2.6 4.3 0.00 0.00 0.00 56 1016.5
20260502221344 54 160 1.7 3.5 0.00 0.00 0.00 53 1016.5
20260502220825 54 194 0.9 3.5 0.00 0.00 0.00 52 1016.5
20260502220358 55 195 2.6 4.3 0.00 0.00 0.00 54 1016.6
20260502215823 55 179 0.9 4.3 0.00 0.00 0.00 54 1016.5
20260502215333 54 175 2.6 4.3 0.00 0.00 0.00 53 1016.6
20260502214818 54 159 1.7 3.5 0.00 0.00 0.00 54 1016.6
20260502214324 54 246 0.9 2.6 0.00 0.00 0.00 54 1016.7
20260502213832 54 183 1.7 4.3 0.00 0.00 0.00 60 1016.6
20260502213322 54 163 1.7 5.2 0.00 0.00 0.00 58 1016.6
20260502212822 54 195 0.9 4.3 0.00 0.00 0.00 57 1016.6
20260502212328 54 201 1.7 3.5 0.00 0.00 0.00 56 1016.7
20260502211834 54 150 1.7 5.2 0.00 0.00 0.00 56 1016.7
20260502211322 54 178 1.7 7.8 0.00 0.00 0.00 55 1016.7
20260502210824 54 193 0.9 7.8 0.00 0.00 0.00 55 1016.8
20260502210336 54 248 0.9 3.5 0.00 0.00 0.00 56 1016.8
20260502205840 54 151 1.7 5.2 0.00 0.00 0.00 55 1016.8
20260502205343 54 171 2.6 5.2 0.00 0.00 0.00 54 1016.9
20260502204850 54 143 2.6 5.2 0.00 0.00 0.00 51 1016.9
20260502204335 54 157 1.7 3.5 0.00 0.00 0.00 51 1017.0
20260502203824 54 233 0.9 2.6 0.00 0.00 0.00 52 1017.1
20260502203332 54 261 1.7 5.2 0.00 0.00 0.00 53 1017.1
20260502202827 54 204 1.7 5.2 0.00 0.00 0.00 53 1017.2
20260502202327 54 278 1.7 6.1 0.00 0.00 0.00 55 1017.3
20260502201830 54 334 2.6 6.1 0.00 0.00 0.00 56 1017.3
20260502201334 54 143 2.6 5.2 0.00 0.00 0.00 58 1017.4
20260502200848 54 201 1.7 5.2 0.00 0.00 0.00 57 1017.4
20260502200359 54 258 0.9 3.5 0.00 0.00 0.00 58 1017.5
20260502195821 54 201 1.7 3.5 0.00 0.00 0.00 60 1017.6
20260502195400 54 181 1.7 5.2 0.00 0.00 0.00 56 1017.7
20260502194850 54 171 3.5 5.2 0.00 0.00 0.00 57 1017.7
20260502194336 54 113 1.7 6.1 0.00 0.00 0.00 58 1017.9